Regional Weather Roundup
Issued by NWS

Home | Current Version | Previous Version | Text Only | Print | Product List | Glossary Off
Versions: 1 2 3 4 5 6 7 8 9 10 11 12 13 14 15 16 17 18 19 20 21 22 23 24 25 26 27 28 29 30 31 32 33 34 35 36 37 38 39 40 41 42 43 44 45 46 47 48 49 50

000
ASUS45 KBOU 260007
RWRCO

WEATHER ROUNDUP FOR COLORADO
NATIONAL WEATHER SERVICE DENVER/BOULDER CO
600 PM MDT MON SEP 25 2017

NOTE: "FAIR" INDICATES FEW OR NO CLOUDS BELOW 12000 FEET WITH NO
SIGNIFICANT WEATHER AND/OR OBSTRUCTIONS TO VISIBILITY.

COZ001>005-013-030-031-260100-
...NORTHWEST COLORADO...

CITY           SKY/WX    TMP DP  RH WIND       PRES   REMARKS
CRAIG          FAIR      54  24  31 NW9       30.09S
HAYDEN         FAIR      49  27  42 NW9       30.11R
MEEKER         CLOUDY    57  26  30 N6        30.09R
RABBIT EARS PA CLOUDY    32  27  80 W8        30.19S WCI  25
STEAMBOAT SPGS FAIR      49  26  40 SW10      30.10R
WALDEN         CLOUDY    50  25  37 N10       30.11S
$$

COZ006>008-011-260100-
...WEST CENTRAL VALLEYS...

CITY           SKY/WX    TMP DP  RH WIND       PRES   REMARKS
GRAND JUNCTION FAIR      63  26  24 NW12      30.00S
MONTROSE       FAIR      60  27  28 NW8       30.05R
EAGLE          FAIR      60  22  23 W14G24    30.04R
RIFLE          FAIR      62  27  26 NW13      30.02R
DELTA          FAIR      67  24  19 W12       30.01R
NUCLA          FAIR      61  19  20 NE3       30.06S
$$

COZ017>023-064>068-260100-
...SOUTHWEST COLORADO...

CITY           SKY/WX    TMP DP  RH WIND       PRES   REMARKS
DURANGO        FAIR      61  16  17 SW9       30.01S
CORTEZ         FAIR      63  21  20 W9        30.00F
PAGOSA SPRINGS FAIR      60   0   9 SW10G17   30.05S
TELLURIDE      FAIR      49  19  29 W13       30.15S
WOLF CREEK PAS FAIR      36   9  32 SW16G23   30.26S
$$

COZ009-010-012-014-032>034-037-058>063-260100-
...CENTRAL COLORADO...

CITY           SKY/WX    TMP DP  RH WIND       PRES   REMARKS
ASPEN          FAIR      54  21  27 N10       30.06R
BUENA VISTA    FAIR      52  35  51 S17G24    30.04R
COPPER MTN     FAIR      39  10  30 NW14G22   30.22R
BERTHOUD PASS  HAZE      27  18  69 W13       30.22S THUNDER VSB<1/4
COTTONWOOD PAS FAIR      54   0  11 N6        30.11R
GUNNISON       FAIR      56  17  21 W13       30.05R
KREMMLING      FAIR      55  25  30 N12G24    30.08R
LEADVILLE      FAIR      45  11  25 NW10      30.11R
MONARCH PASS   FAIR      41   9  26 W20G26    30.32R
SALIDA         FAIR      53  37  55 SE20G28   30.10R
SUNLIGHT       FAIR      34  23  64 W9        30.23R WCI  26
WILKERSON PASS SNOW      32  32 100 SE8       30.23R VSB<1/4 WCI  25
$$

COZ069>075-260100-
...SAN LUIS VALLEY/SANGRE DE CRISTO MOUNTAINS...

CITY           SKY/WX    TMP DP  RH WIND       PRES   REMARKS
ALAMOSA        FAIR      63  -1   7 SW16      30.00R
DEL NORTE      FAIR      60   7  12 SW13      30.03R
LA VETA PASS   LGT RAIN  39  37  93 NE10      30.27S VSB<1/4
SAGUACHE       FAIR      61  10  13 N15       30.00R
$$

COZ035-036-038>040-260100-
...NORTHERN COLORADO FRONT RANGE...

CITY           SKY/WX    TMP DP  RH WIND       PRES   REMARKS
DENVER INTL AP MOCLDY    51  39  63 NE7       30.07R
DMNS CITY PARK   N/A     50  44  78 SE7       30.07S
AURORA         LGT RAIN  51  42  71 NE6       30.08S
FRONT RANGE AP MOCLDY    54  43  66 E10G18    30.08S
ERIE MUNI ARPT CLOUDY    52  44  75 W5        30.12S
BOULDER MUN AP CLOUDY    52  43  71 CALM      30.07S
CENTENNIAL     CLOUDY    49  44  83 CALM      30.08S
BROOMFIELD     MOCLDY    50  45  81 CALM      30.08S
FORT COLLINS   CLOUDY    54  41  61 SE6       30.08R
LONGMONT       CLOUDY    55  42  61 CALM      30.09R
$$

COZ041-046-047-076>085-087-088-260100-
...PIKES PEAK/PALMER DIVIDE AND SOUTHERN FOOTHILLS...

CITY           SKY/WX    TMP DP  RH WIND       PRES   REMARKS
COLO. SPRINGS  MOCLDY    55  41  59 S13       30.07R
A. F. ACADEMY  CLOUDY    53  39  59 W3        30.07R
SCHRIEVER AFB  FAIR      52  40  63 E7        30.07R
CHEYENNE MTN   FAIR      47  40  76 S7        30.04R
ELLICOTT       CLOUDY   N/A N/A N/A E10       30.07R
FALCON         CLOUDY    49  39  66 E5        30.10R
FORT CARSON    CLOUDY    55  42  62 S7        30.05R
LIMON            N/A    N/A N/A N/A MISG      30.08R
MONUMENT HILL  CLOUDY    45  37  76 NE9       30.11R
CANON CITY     NOT AVBL
WALSENBURG     NOT AVBL
TRINIDAD       CLOUDY    49  48  97 NE7       30.07R
$$

COZ042>045-048>051-090-091-260100-
...NORTHEAST COLORADO...

CITY           SKY/WX    TMP DP  RH WIND       PRES   REMARKS
GREELEY ARPT   CLOUDY    56  43  61 SE7       30.08R
AKRON          CLOUDY    49  41  74 N7        30.08R
BURLINGTON     CLOUDY    49  47  93 N12       30.05S
WRAY           CLOUDY    50  46  87 N9        30.07S
YUMA           RAIN      46  45  93 NE9       30.07S
STERLING       CLOUDY    50  43  76 NE8       30.07R
HOLYOKE        RAIN      52  46  82 NE5       30.08S
FORT MORGAN    CLOUDY    51  39  64 CALM      30.09R
$$

COZ086-089-092>099-260100-
...SOUTHEAST COLORADO...

CITY           SKY/WX    TMP DP  RH WIND       PRES   REMARKS
PUEBLO         CLOUDY    57  46  66 SE13      30.03R
LA JUNTA       CLOUDY    54  48  80 NE8       30.04R
LAMAR          CLOUDY    52  49  89 N8        30.01S
SPRINGFIELD      N/A     51  51 100 N10       30.02R
$$



USA.gov is the U.S. government's official web portal to all federal, state and local government web resources and services.